Inquirer Daily News

Weather

Get conditions and forecasts for any City, State, ZIP code or Country:  
Northeast Philadelphia, PA
on Tuesday, February 26, 2013

Tuesday
Previous Day Next Day
Daily Summary
 ActualAverage (KTTN)Record (KTTN)
Temperature
Mean Temperature °F 36°F  
Max Temperature 45°F 45°F 70°F (1890)
Min Temperature 26°F 28°F 5°F (1990)
Degree Days
Heating Degree Days 30 29  
Month to date heating degree days 811  
Since 1 July heating degree days 3757  
Cooling Degree Days 0 0  
Month to date cooling degree days 0  
Year to date cooling degree days 0  
Moisture
Dew Point 30°F   
Average Humidity 76    
Maximum Humidity 93    
Minimum Humidity 53    
Precipitation
Precipitation 0.32 in 0.09 in 1.46 in (1929)
Month to date precipitation 2.11  
Year to date precipitation 5.27  
Wind
Wind Speed 8 mph   
Max Wind Speed 22 mph   
Max Gust Speed 32 mph   
Visibility 9 miles   
Events Rain   

Key: T is trace of precipitation, MM is missing value
Source: NWS Daily Summary
Time(EST)TemperatureDew PointHumidity Pressure Visibility Wind DirectionWind SpeedGust SpeedPrecipitationEvents Conditions
12:54 AM 28.9°F 24.1°F 82% 30.26 in 10.0 miles West 3.5 mph - N/A   Clear
1:54 AM 27.0°F 21.9°F 81% 30.27 in 10.0 miles Calm Calm - N/A   Clear
2:54 AM 28.0°F 24.1°F 85% 30.26 in 10.0 miles Calm Calm - N/A   Clear
3:54 AM 27.0°F 24.1°F 89% 30.26 in 10.0 miles Calm Calm - N/A   Clear
4:54 AM 26.1°F 21.9°F 84% 30.25 in 10.0 miles Calm Calm - N/A   Clear
5:54 AM 26.1°F 23.0°F 88% 30.24 in 10.0 miles Calm Calm - N/A   Clear
6:54 AM 27.0°F 23.0°F 85% 30.27 in 9.0 miles Calm Calm - N/A   Clear
7:54 AM 30.0°F 26.1°F 85% 30.27 in 10.0 miles NE 5.8 mph - N/A   Clear
8:54 AM 34.0°F 28.9°F 82% 30.27 in 10.0 miles ENE 5.8 mph - N/A   Clear
9:54 AM 39.0°F 28.9°F 67% 30.27 in 10.0 miles East 5.8 mph - N/A   Clear
10:54 AM 43.0°F 28.9°F 58% 30.26 in 10.0 miles East 12.7 mph - N/A   Clear
11:54 AM 45.0°F 30.0°F 56% 30.24 in 10.0 miles SE 15.0 mph - N/A   Overcast
12:54 PM 45.0°F 30.0°F 56% 30.20 in 10.0 miles Variable 5.8 mph 19.6 mph N/A   Overcast
1:20 PM 44.6°F 30.2°F 57% 30.19 in 10.0 miles East 17.3 mph - N/A   Overcast
1:54 PM 44.1°F 28.0°F 53% 30.19 in 10.0 miles ESE 13.8 mph - N/A   Overcast
2:54 PM 43.0°F 30.0°F 60% 30.16 in 10.0 miles East 19.6 mph 25.3 mph N/A   Overcast
3:54 PM 42.1°F 30.0°F 62% 30.12 in 10.0 miles East 15.0 mph - N/A   Overcast
4:26 PM 42.8°F 30.2°F 61% 30.12 in 10.0 miles East 16.1 mph - N/A   Overcast
4:54 PM 41.0°F 32.0°F 70% 30.10 in 10.0 miles East 20.7 mph 29.9 mph N/A   Overcast
5:54 PM 41.0°F 33.1°F 73% 30.07 in 10.0 miles East 18.4 mph - N/A   Overcast
6:54 PM 39.9°F 32.0°F 73% 30.04 in 10.0 miles East 20.7 mph 29.9 mph N/A   Overcast
7:54 PM 39.0°F 34.0°F 82% 29.99 in 8.0 miles East 20.7 mph 27.6 mph 0.02 in Rain Light Rain
8:54 PM 37.9°F 34.0°F 86% 29.94 in 10.0 miles East 18.4 mph 29.9 mph 0.02 in   Overcast
9:49 PM 37.4°F 35.6°F 93% 29.89 in 8.0 miles East 21.9 mph 29.9 mph 0.08 in Rain Light Rain
9:54 PM 37.9°F 35.1°F 89% 29.89 in 9.0 miles East 21.9 mph 29.9 mph 0.08 in Rain Light Rain
10:18 PM 37.4°F 35.6°F 93% 29.86 in 10.0 miles ENE 19.6 mph 32.2 mph 0.00 in Rain Light Rain
10:54 PM 37.9°F 36.0°F 93% 29.83 in 6.0 miles ENE 20.7 mph 28.8 mph 0.02 in Rain Light Rain
11:54 PM 39.0°F 37.0°F 93% 29.82 in 3.0 miles ENE 17.3 mph 25.3 mph 0.18 in Rain Rain
Astronomy
Sunrise:06:37 AM (EST) Moon Rise:07:02 PM (EST)2/26
Sunset:05:48 PM (EST) Moon Set:06:38 AM (EST)2/26
Moon Phase
Feb. 26 Mar. 04 Mar. 11 Mar. 19 Mar. 27

Copyright © 2014 The Weather Underground, Inc.